TimeEDT,TemperatureF,Dew PointF,Humidity,Sea Level PressureIn,VisibilityMPH,Wind Direction,Wind SpeedMPH,Gust SpeedMPH,PrecipitationIn,Events,Conditions,WindDirDegrees,DateUTC
12:56 AM,68.0,66.9,96,29.96,8.0,SSE,4.6,-,N/A,,Clear,160,2013-08-07 04:56:00
1:56 AM,68.0,66.9,96,29.96,7.0,South,3.5,-,N/A,,Mostly Cloudy,180,2013-08-07 05:56:00
2:56 AM,68.9,66.9,93,29.96,7.0,South,4.6,-,N/A,,Scattered Clouds,170,2013-08-07 06:56:00
3:56 AM,68.0,66.9,96,29.95,7.0,South,4.6,-,N/A,,Clear,180,2013-08-07 07:56:00
4:56 AM,68.0,66.9,96,29.94,7.0,South,4.6,-,N/A,,Scattered Clouds,180,2013-08-07 08:56:00
5:56 AM,68.9,68.9,100,29.93,6.0,South,3.5,-,N/A,,Mostly Cloudy,180,2013-08-07 09:56:00
6:33 AM,69.8,69.8,100,29.96,5.0,South,3.5,-,N/A,,Mostly Cloudy,180,2013-08-07 10:33:00
6:44 AM,69.8,69.8,100,29.96,5.0,South,3.5,-,N/A,,Mostly Cloudy,180,2013-08-07 10:44:00
6:56 AM,70.0,68.9,96,29.94,5.0,South,3.5,-,N/A,,Mostly Cloudy,190,2013-08-07 10:56:00
7:35 AM,69.8,69.8,100,29.95,3.0,South,4.6,-,N/A,,Scattered Clouds,190,2013-08-07 11:35:00
7:56 AM,70.9,70.0,97,29.94,4.0,South,4.6,-,N/A,,Scattered Clouds,190,2013-08-07 11:56:00
8:56 AM,72.9,70.9,93,29.95,4.0,South,4.6,-,N/A,,Partly Cloudy,190,2013-08-07 12:56:00
9:17 AM,73.4,71.6,94,29.98,4.0,SW,6.9,-,N/A,,Mostly Cloudy,220,2013-08-07 13:17:00
9:56 AM,75.9,72.9,90,29.96,4.0,SW,8.1,-,N/A,,Partly Cloudy,220,2013-08-07 13:56:00
10:21 AM,77.0,73.4,89,29.98,3.0,SSW,9.2,-,N/A,,Mostly Cloudy,210,2013-08-07 14:21:00
10:56 AM,79.0,73.9,84,29.96,4.0,SSW,8.1,-,N/A,,Haze,210,2013-08-07 14:56:00
11:14 AM,78.8,73.4,83,29.98,4.0,SSW,6.9,-,N/A,,Haze,210,2013-08-07 15:14:00
11:56 AM,79.9,72.9,79,29.96,4.0,SSW,5.8,-,N/A,,Haze,200,2013-08-07 15:56:00
12:03 PM,80.6,73.4,79,29.98,4.0,SW,6.9,-,N/A,,Haze,220,2013-08-07 16:03:00
12:56 PM,81.9,73.9,77,29.95,4.0,SSW,8.1,-,N/A,,Haze,200,2013-08-07 16:56:00
1:56 PM,81.0,72.9,76,29.94,4.0,SW,6.9,-,N/A,,Haze,220,2013-08-07 17:56:00
2:56 PM,79.9,72.9,79,29.93,4.0,SSW,4.6,-,N/A,,Haze,210,2013-08-07 18:56:00
3:37 PM,82.4,73.4,74,29.95,5.0,SSW,5.8,-,N/A,,Haze,200,2013-08-07 19:37:00
3:56 PM,82.9,72.9,71,29.91,5.0,South,5.8,-,N/A,,Haze,190,2013-08-07 19:56:00
4:56 PM,82.9,73.9,74,29.90,5.0,South,5.8,-,N/A,,Haze,190,2013-08-07 20:56:00
5:13 PM,82.4,75.2,79,29.93,5.0,SSW,5.8,-,N/A,,Haze,200,2013-08-07 21:13:00
5:56 PM,81.9,73.9,77,29.90,5.0,SSW,4.6,-,N/A,,Haze,200,2013-08-07 21:56:00
6:38 PM,80.6,73.4,79,29.92,5.0,Calm,Calm,-,N/A,,Haze,0,2013-08-07 22:38:00
6:56 PM,81.0,72.9,76,29.90,5.0,South,3.5,-,N/A,,Haze,190,2013-08-07 22:56:00
7:56 PM,79.0,73.9,84,29.91,6.0,South,3.5,-,N/A,,Haze,180,2013-08-07 23:56:00
8:56 PM,75.9,72.9,90,29.91,7.0,South,3.5,-,N/A,,Mostly Cloudy,170,2013-08-08 00:56:00
9:56 PM,74.8,72.9,94,29.92,7.0,Calm,Calm,-,N/A,,Partly Cloudy,0,2013-08-08 01:56:00
10:10 PM,73.4,73.4,100,29.95,6.0,Calm,Calm,-,N/A,,Mostly Cloudy,0,2013-08-08 02:10:00
10:32 PM,73.4,71.6,94,29.97,5.0,South,3.5,-,N/A,,Partly Cloudy,170,2013-08-08 02:32:00
10:56 PM,73.9,72.9,96,29.94,7.0,South,3.5,-,N/A,,Clear,180,2013-08-08 02:56:00
11:56 PM,70.0,68.9,96,29.94,4.0,SE,4.6,-,N/A,,Clear,140,2013-08-08 03:56:00